Regional Weather Roundup
Issued by NWS

Home | Current Version | Previous Version | Graphics & Text | Print | Product List | Glossary On
Versions: 1 2 3 4 5 6 7 8 9 10 11 12 13 14 15 16 17 18 19 20 21 22 23 24 25 26 27 28 29 30 31 32 33 34 35 36 37 38 39 40 41 42 43 44 45 46 47 48 49 50
000
ASUS45 KTFX 290804
RWRMT
MONTANA HOURLY WEATHER ROUNDUP
NATIONAL WEATHER SERVICE GREAT FALLS MT
104 AM MST THU JAN 29 2015

NOTE: "FAIR" INDICATES FEW OR NO CLOUDS BELOW 12000 FEET WITH NO
SIGNIFICANT WEATHER AND/OR OBSTRUCTIONS TO VISIBILITY.

* THESE STATIONS ARE NOT UNDER NWS QUALITY CONTROL. THEY DO NOT
   REPORT WEATHER SUCH AS PRECIPITATION OR FOG.

MTZ001>007-043-290900-
WEST OF THE DIVIDE
CITY           SKY/WX    TMP DP  RH WIND       PRES   REMARKS
KALISPELL      FOG       18  18 100 CALM      30.43S VSB M1/4
MISSOULA       PTCLDY    27  23  85 CALM      30.45S
BUTTE          CLEAR     21  18  88 SE3       30.40F
MULLAN PASS    CLEAR     27  25  92 S6        30.35F WCI  20
* ANACONDA     PTCLDY    27  19  72 S6         N/A   WCI  20
* ESSEX        N/A       21  19  92 N/A        N/A
* LINCOLN      N/A       19  17  92 NE1        N/A
* LOOKOUT PASS N/A       26  25  96 SE2        N/A
* POLSON       N/A       28  25  89 N/A        N/A
* SEELEY LAKE  N/A       16  13  88 E2         N/A
* THOMP F APT  CLEAR     28  25  89 N4         N/A
* YAAK HILL    N/A       30  28  92 N/A        N/A
$$

MTZ008-052>055-290900-
SOUTHWEST MONTANA
CITY           SKY/WX    TMP DP  RH WIND       PRES   REMARKS
BOZEMAN        CLEAR     23  19  85 SE7       30.41S WCI  15
DILLON         PTCLDY    28  21  75 S8        30.39F WCI  20
* W YELLOWSTON PTCLDY    27  26  96 N/A        N/A
* THREE FORKS  CLEAR     25  25 100 N/A        N/A
* BOULDER HILL N/A       27  16  63 SW5        N/A   WCI  21
* MONIDA PASS  N/A       25  25 100 SE4        N/A
* RAYNOLDS PAS N/A       27  26  96 N1         N/A
* WHITEHALL    N/A       27  20  75 E3G9       N/A
* WISE RIVER   N/A       22  17  81 W1         N/A
$$

MTZ009>010-012-014-046-048-049-054-290900-
EAST SLOPES AND CENTRAL MONTANA
CITY           SKY/WX    TMP DP  RH WIND       PRES   REMARKS
CUT BANK       FOG       25  25 100 SE6       30.33F WCI  18
GREAT FALLS    FOG       28  28 100 SW3       30.36F
HELENA         CLEAR     30  21  69 CALM      30.40S
MALMSTROM AFB  CLEAR     28  25  89 S3        30.37F
* DEARBORN     N/A       28  26  92 S3         N/A
* EAST GLACIER N/A       32  23  69 W13G19     N/A   WCI  22
* MONARCH      N/A       26  21  81 S9         N/A   WCI  17
* PENDROY      N/A       25  25 100 N/A        N/A
* ROGERS PASS  N/A       29  20  69 SE6G15     N/A   WCI  23
* SWEET GRASS  N/A       27  27 100 S12        N/A   WCI  16
$$

MTZ011-013-016-021-035-040-045-047-050-051-290900-
NORTH CENTRAL MONTANA
CITY           SKY/WX    TMP DP  RH WIND       PRES   REMARKS
HAVRE          CLEAR     25  21  85 W5        30.40F WCI  19
LEWISTOWN      CLEAR     25  21  85 SE6       30.38F WCI  18
* N BAR RANCH  CLEAR     27  21  78 NW6       30.40S WCI  20
* CHESTER      N/A       25  23  92 S2         N/A
* DENTON       N/A       24  23  96 SE2        N/A
* GEYSER       N/A       23  20  88 S4         N/A
* JUDITH GAP   N/A       27  24  88 S4         N/A
* LOMA         N/A       28  27  96 N/A        N/A
$$

MTZ017>020-022>027-061-062-290900-
NORTHEAST MONTANA
CITY           SKY/WX    TMP DP  RH WIND       PRES   REMARKS
GLASGOW        FOG       25  21  85 NW5       30.41R WCI  19
GLENDIVE       CLEAR     28  23  81 W12       30.40R WCI  18
JORDAN         CLEAR     25  21  85 NW5       30.42R WCI  19
SIDNEY         CLOUDY    30  23  75 W8        30.41R WCI  22
WOLF POINT     FAIR      28  23  81 W7        30.42S WCI  21
* BEAVER HILL  N/A       30  24  78 NW14       N/A   WCI  19
* CIRCLE       N/A       27  25  92 N/A        N/A
* LINDSAY DVD  N/A       27  26  96 NW15       N/A   WCI  15
* NAVAJO       N/A       24  20  85 N9         N/A   WCI  14
* SACO         N/A       24  22  92 N/A        N/A
$$

MTZ028>042-056>058-290900-
SOUTHCENTRAL AND SOUTHEAST MONTANA
CITY           SKY/WX    TMP DP  RH WIND       PRES   REMARKS
BAKER          CLOUDY    30  25  82 NW16G22   30.37R WCI  19
BILLINGS       MOCLDY    37  28  70 S5        30.42S WCI  33
LIVINGSTON     CLEAR     25  21  85 VRB3      30.39S
MILES CITY     CLEAR     27  23  85 W6        30.42S WCI  20
* LAUREL APT   CLEAR     34  18  52 N/A        N/A
* ROUNDUP APT  PTCLDY    28  21  75 N/A        N/A
* ALZADA       N/A       32  27  82 W13G18     N/A   WCI  22
* HYSHAM       N/A       31  29  92 W2         N/A
* LAME DEER    N/A       28  23  81 W8         N/A   WCI  20
* REED POINT   N/A       29  24  82 W2         N/A
$$

REGIONAL REPORTS...DAKOTAS
CITY           SKY/WX    TMP DP  RH WIND       PRES   REMARKS
WILLISTON      CLOUDY    28  21  75 NW9G21    30.37R WCI  19
DICKINSON      CLOUDY    32  25  75 NW16G25   30.29R WCI  21
CROSBY         CLOUDY    25  25 100 NW14      30.36R WCI  13
WATFORD CITY   CLOUDY    28  25  89 NW8       30.34R WCI  20
BISMARCK       FOG       32  28  85 NW15G25   30.29R WCI  22
GRAND FORKS    CLOUDY    21  18  88 N22G28    30.18R WCI   5
FARGO          CLOUDY    27  21  78 NW21      30.14R WCI  13
BUFFALO SD     PTCLDY    34  23  64 NW25G35   30.28R WCI  21
RAPID CITY     MOCLDY    32  25  75 N25G31    30.33S WCI  19
$$

REGIONAL REPORTS...WYOMING/IDAHO/WASHINGTON
CITY           SKY/WX    TMP DP  RH WIND       PRES   REMARKS
GILLETTE       CLEAR     27  21  78 NW6       30.39R WCI  20
SHERIDAN       FAIR      27  23  85 NW3       30.42S
CODY           CLOUDY    34  28  79 S3        30.39S
YELLOWSTONE LA PTCLDY    21  19  92 CALM      30.40F
SALMON         PTCLDY    19  16  88 S3        30.45S VSB 2 1/2
MULLAN PASS    CLEAR     27  25  92 S6        30.35S WCI  20
SAND POINT     FOG       32  32 100 NE6       30.47S VSB 1    WCI  26
SPOKANE        FOG       34  34 100 NE8       30.43S VSB M1/4 WCI  27

$$




USA.gov is the U.S. government's official web portal to all federal, state and local government web resources and services.